Blytheville Muni Airport, AR

1:22 PM CDT on October 22, 2017 (GMT -0500)
Blytheville Municipal

Weather History for KHKA - December, 2013

Change the Weather History Date:

Monday, December 23, 2013

  Actual Average Record
Temperature  
Mean Temperature 34 °F -  
Max Temperature 37 °F 46 °F 73 °F (2015)
Min Temperature 28 °F 29 °F -5 °F (1989)
Degree Days  
Heating Degree Days 32    
Moisture  
Dew Point 27 °F    
Average Humidity 77    
Maximum Humidity 85    
Minimum Humidity 67    
Precipitation  
Precipitation 0.01 in - - ()
Sea Level Pressure  
Sea Level Pressure 30.44 in    
Wind  
Wind Speed 13 mph (NNW)    
Max Wind Speed 17 mph    
Max Gust Speed -    
Visibility 10 miles    
Events      
Averages and records for this station are not official NWS values.
T = Trace of Precipitation, MM = Missing Value Source: NWS Daily Summary

Daily Weather History Graph

Daily Weather History Graph

Search for Another Location

Airport or City:

Trip Planner

Search our weather history database for the weather conditions in past years. The results will help you decide how hot, cold, wet, or windy it might be!

Date:

Astronomy

Dec. 23, 2013 Rise Set
Actual Time 7:07 AM CST 4:50 PM CST
Civil Twilight 6:38 AM CST 5:18 PM CST
Nautical Twilight 6:06 AM CST 5:50 PM CST
Astronomical Twilight 5:35 AM CST 6:22 PM CST
Moon 10:49 PM CST (12/23) 10:42 AM CST (12/23)
Length of Visible Light 10h 40m
Length of Day
9h 43m
Waning Gibbous, 68% of the Moon is Illuminated
Dec 23
Waning Gibbous
Dec 25
Last Quarter
Jan 1
New
Jan 7
First Quarter
Jan 15
Full

Hourly Weather History & Observations

Time (CST) Temp. Windchill Dew Point Humidity Pressure Visibility Wind Dir Wind Speed Gust Speed Precip Events Conditions
12:29 AM 35.6 °F 26.2 °F 30.2 °F 81% 30.28 in 10.0 mi NNW 15.0 mph - N/A   Overcast
12:53 AM 35.1 °F 25.5 °F 30.0 °F 82% 30.29 in 10.0 mi NNW 15.0 mph - N/A   Overcast
1:45 AM 35.6 °F 26.2 °F 28.4 °F 75% 30.32 in 10.0 mi NNW 15.0 mph - N/A   Overcast
1:53 AM 35.1 °F 25.2 °F 28.9 °F 78% 30.32 in 10.0 mi NNW 16.1 mph - N/A   Overcast
2:37 AM 33.8 °F 23.9 °F 28.4 °F 81% 30.33 in 10.0 mi NNW 15.0 mph - 0.01 in   Scattered Clouds
2:53 AM 34.0 °F 24.2 °F 28.9 °F 82% 30.34 in 10.0 mi NNW 15.0 mph - 0.01 in   Mostly Cloudy
3:53 AM 33.1 °F 23.9 °F 28.0 °F 82% 30.35 in 10.0 mi NNW 12.7 mph - N/A   Mostly Cloudy
4:17 AM 33.8 °F 24.3 °F 28.4 °F 81% 30.35 in 10.0 mi NNW 13.8 mph - N/A   Mostly Cloudy
4:53 AM 33.1 °F 22.6 °F 28.0 °F 82% 30.36 in 10.0 mi North 16.1 mph - N/A   Overcast
5:53 AM 32.0 °F 22.1 °F 26.1 °F 79% 30.39 in 10.0 mi North 13.8 mph - N/A   Overcast
6:53 AM 32.0 °F 20.8 °F 26.1 °F 79% 30.43 in 10.0 mi North 17.3 mph - N/A   Overcast
7:53 AM 32.0 °F 21.6 °F 25.0 °F 75% 30.45 in 10.0 mi North 15.0 mph - N/A   Overcast
8:53 AM 32.0 °F 21.6 °F 24.1 °F 73% 30.48 in 10.0 mi North 15.0 mph - N/A   Overcast
9:53 AM 33.1 °F 24.4 °F 25.0 °F 72% 30.51 in 10.0 mi North 11.5 mph - N/A   Overcast
10:53 AM 36.0 °F 27.1 °F 27.0 °F 70% 30.52 in 10.0 mi North 13.8 mph - N/A   Overcast
11:53 AM 35.1 °F 26.4 °F 26.1 °F 70% 30.51 in 10.0 mi North 12.7 mph - N/A   Overcast
12:53 PM 36.0 °F 31.1 °F 26.1 °F 67% 30.49 in 10.0 mi North 5.8 mph - N/A   Overcast
1:53 PM 35.1 °F 29.3 °F 25.0 °F 67% 30.48 in 10.0 mi North 6.9 mph - N/A   Overcast
2:53 PM 37.0 °F 29.8 °F 27.0 °F 67% 30.47 in 10.0 mi North 10.4 mph - N/A   Mostly Cloudy
3:53 PM 36.0 °F 29.0 °F 26.1 °F 67% 30.49 in 10.0 mi North 9.2 mph - N/A   Scattered Clouds
4:53 PM 32.0 °F 24.8 °F 25.0 °F 75% 30.50 in 10.0 mi NW 8.1 mph - N/A   Partly Cloudy
5:53 PM 30.0 °F 25.2 °F 26.1 °F 85% 30.50 in 10.0 mi NNW 4.6 mph - N/A   Clear
6:53 PM 30.0 °F - 25.0 °F 82% 30.51 in 10.0 mi Calm Calm - N/A   Clear
7:53 PM 30.0 °F - 26.1 °F 85% 30.52 in 10.0 mi Calm Calm - N/A   Clear
8:53 PM 30.9 °F 27.5 °F 27.0 °F 85% 30.53 in 10.0 mi West 3.5 mph - N/A   Overcast
9:53 PM 32.0 °F 27.5 °F 27.0 °F 82% 30.53 in 10.0 mi WNW 4.6 mph - N/A   Overcast
10:53 PM 30.9 °F 21.2 °F 25.0 °F 79% 30.53 in 10.0 mi NNW 12.7 mph - N/A   Overcast
11:53 PM 28.9 °F 19.8 °F 24.1 °F 82% 30.54 in 10.0 mi NNW 10.4 mph - N/A   Partly Cloudy